Location: Brede
(50.9167°N, 0.6000°E)
Time: 17:05:17
(UTC+00:00)

Landsat 5 - Pass Details

Date: 08 August 2020
Orbit: 529 x 654 km, 98.2° (Epoch: 22 September)

Event Time Altitude Azimuth Distance (km) Brightness Sun altitude
Rises 03:27:40 0° 166° (SSE) 2,687 6.6 -9.6°
Reaches altitude 10° 03:29:45 10° 167° (SSE) 1,813 5.7 -9.3°
Maximum altitude 03:33:40 82° 256° (WSW) 572 3.3 -8.8°
Drops below altitude 10° 03:37:45 10° 344° (NNW) 1,893 6.4 -8.3°
Sets 03:39:58 0° 345° (NNW) 2,818 7.3 -8.1°
